| time (UTC) | temp F | wind direction | speed knots | gust knots | rain 1hr in | rain 24hr in | rain mn in | humidity % | barometer mb |
| 20260506230407 | 47 | 3 | 2.6 | 10.4 | 0.00 | 0.00 | 0.00 | 86 | 1012.6 |
| 20260506220907 | 48 | 9 | 3.5 | 7.8 | 0.00 | 0.00 | 0.00 | 85 | 1012.4 |
| 20260506214406 | 49 | 359 | 5.2 | 11.3 | 0.00 | 0.00 | 0.00 | 83 | 1012.2 |
| 20260506190406 | 54 | 358 | 5.2 | 13.9 | 0.00 | 0.00 | 0.00 | 70 | 1010.6 |
| 20260506180405 | 55 | 6 | 8.7 | 15.6 | 0.00 | 0.00 | 0.00 | 69 | 1010.0 |
| 20260506170906 | 55 | 17 | 1.7 | 5.2 | 0.00 | 0.00 | 0.00 | 68 | 1009.5 |
| 20260506160906 | 57 | 49 | 4.3 | 7.8 | 0.00 | 0.00 | 0.00 | 61 | 1009.2 |
| 20260506150906 | 57 | 43 | 5.2 | 10.4 | 0.00 | 0.00 | 0.00 | 54 | 1009.0 |
| 20260506140406 | 59 | 78 | 4.3 | 14.8 | 0.00 | 0.00 | 0.00 | 52 | 1008.9 |
| 20260506130905 | 59 | 27 | 6.1 | 14.8 | 0.00 | 0.00 | 0.00 | 53 | 1008.8 |
| 20260506110904 | 58 | 75 | 6.1 | 17.4 | 0.00 | 0.00 | 0.00 | 57 | 1008.5 |
| 20260506100905 | 57 | 65 | 6.1 | 14.8 | 0.00 | 0.00 | 0.00 | 67 | 1008.5 |
| 20260506100404 | 57 | 3 | 5.2 | 15.6 | 0.00 | 0.00 | 0.00 | 68 | 1008.5 |
| 20260506090905 | 56 | 5 | 7.8 | 13.0 | 0.00 | 0.00 | 0.00 | 75 | 1008.2 |
| 20260506090405 | 57 | 352 | 7.8 | 13.9 | 0.00 | 0.00 | 0.00 | 74 | 1008.3 |
| 20260506070405 | 54 | 16 | 6.1 | 15.6 | 0.00 | 0.00 | 0.00 | 83 | 1007.9 |
| 20260506050904 | 51 | 1 | 2.6 | 7.0 | 0.00 | 0.00 | 0.00 | 86 | 1007.6 |
| 20260506050404 | 51 | 7 | 1.7 | 13.9 | 0.00 | 0.00 | 0.00 | 86 | 1007.6 |
| 20260506040904 | 51 | 13 | 7.0 | 11.3 | 0.00 | 0.00 | 0.00 | 85 | 1007.7 |
| 20260506040403 | 51 | 355 | 4.3 | 12.2 | 0.00 | 0.00 | 0.00 | 85 | 1007.8 |
| 20260506030403 | 51 | 355 | 5.2 | 11.3 | 0.00 | 0.00 | 0.00 | 84 | 1008.0 |
| 20260506020905 | 51 | 344 | 4.3 | 7.8 | 0.00 | 0.00 | 0.00 | 84 | 1008.1 |
| 20260506020405 | 51 | 13 | 2.6 | 11.3 | 0.00 | 0.00 | 0.00 | 84 | 1008.1 |
| 20260506010405 | 50 | 339 | 7.8 | 12.2 | 0.00 | 0.00 | 0.00 | 84 | 1008.3 |
| 20260506000905 | 50 | 10 | 5.2 | 7.8 | 0.00 | 0.00 | 0.00 | 85 | 1008.9 |